Dewpoint
57 57 58 58 59 60 59 60 60 60 61 62 63 63 63 64 64 64 64 64 64 64 64 64 64 64 64 64 63 63 61 58 56 52 49 43 50 55 61 58 63 63 62 50 44 44 41 41 45 52 48 53 50 44 44 45 44 50 38 34 32 35 31 28 25 25 28 25 23 23 26 31 31 33 34 34 34 35 39 45 46 50 54 58 58 59 59 59
56 57 57 58 58 59 59 60 60 60 61 61 62 62 63 63 64 64 64 64 64 64 64 64 64 64 63 63 63 63 59 56 54 52 48 53 59 59 62 60 63 62 60 50 43 43 43 43 46 48 44 44 54 47 47 41 45 44 42 36 33 34 32 26 24 23 23 23 23 24 24 26 29 33 34 31 31 34 38 41 46 48 53 58 58 59 59 59
56 56 56 57 58 59 59 60 60 61 61 62 62 63 63 63 63 63 64 64 64 64 64 64 64 63 63 63 63 62 58 55 53 50 51 57 60 60 63 65 64 64 47 48 51 46 47 49 46 47 47 44 47 42 45 39 39 38 41 36 37 36 26 24 24 24 25 24 24 24 25 23 24 31 35 31 29 33 35 38 45 47 51 57 58 58 59 59
56 56 56 57 57 58 59 60 60 60 60 61 62 62 63 63 63 63 64 64 64 64 64 64 64 63 63 63 62 60 57 52 50 51 50 59 59 61 63 65 65 62 53 51 52 50 52 54 51 46 47 46 46 47 38 39 38 42 36 36 39 34 26 23 24 25 23 24 25 24 25 23 24 25 27 28 26 28 29 36 44 44 48 56 58 59 59 59
56 56 57 57 57 57 58 59 60 60 60 61 61 62 62 62 62 63 63 64 64 64 64 63 63 63 62 63 61 59 54 49 50 51 50 59 60 62 63 64 64 56 53 54 52 52 54 54 48 48 47 43 47 42 37 38 42 40 35 36 35 29 28 26 28 31 28 25 24 26 23 24 25 25 24 24 24 26 26 28 39 44 47 56 58 59 59 59
56 57 57 57 57 58 58 58 59 60 60 60 61 61 62 62 62 62 63 63 63 63 64 63 63 62 62 61 59 57 54 42 52 50 58 60 60 62 62 64 64 54 51 49 51 55 54 48 50 45 43 45 43 40 40 36 42 35 38 37 35 29 24 28 31 32 30 32 28 28 31 28 25 24 24 23 23 24 28 29 29 43 48 57 58 59 59 59
56 57 57 57 58 57 58 58 58 59 59 60 60 61 62 62 62 62 62 63 63 63 63 63 62 62 62 61 59 56 52 52 52 54 60 60 61 61 62 64 62 53 51 50 49 49 53 51 48 45 44 44 42 40 41 38 41 36 35 36 33 31 28 35 31 32 30 33 31 32 33 30 28 26 25 24 24 24 26 29 35 45 47 57 58 58 58 59
55 56 56 57 57 58 58 58 58 59 59 60 60 60 61 62 62 62 62 62 63 63 63 63 63 62 61 59 56 53 51 50 51 57 61 61 59 59 62 60 55 52 50 47 48 48 47 47 45 46 43 42 42 39 42 38 39 35 35 33 32 30 34 34 34 32 34 33 32 33 32 31 32 31 24 23 23 24 25 31 40 47 48 56 57 58 58 58
55 56 56 56 57 57 58 57 58 59 59 60 60 60 61 61 62 62 62 62 63 63 63 63 62 62 61 58 55 51 50 53 53 60 60 58 58 60 57 53 53 50 49 51 49 48 52 51 45 43 43 43 44 40 40 35 34 37 35 32 30 30 32 39 37 37 35 35 34 34 33 33 34 29 23 23 23 23 27 30 42 47 47 54 57 57 57 58
55 55 56 56 56 57 57 57 58 58 59 59 60 60 60 61 62 62 62 62 62 63 63 63 62 61 59 56 54 48 55 59 60 60 59 57 58 55 53 52 51 50 50 52 52 51 49 51 49 51 52 47 51 44 40 35 34 37 39 30 28 32 37 38 36 37 38 39 38 36 35 34 33 28 27 28 29 30 28 30 35 48 47 49 56 57 57 57
55 55 55 55 56 56 57 57 57 57 58 59 60 60 60 61 61 61 62 62 62 62 63 63 62 60 57 56 51 47 59 59 60 63 60 57 54 50 50 52 50 49 50 52 51 52 56 53 56 53 48 41 50 43 39 37 40 36 39 38 38 40 40 40 40 39 40 37 38 37 35 34 33 28 26 27 28 31 29 31 33 43 49 48 51 57 57 57
55 56 56 55 55 56 56 57 57 57 58 58 59 59 60 60 61 61 61 62 62 62 62 63 62 60 57 55 52 48 59 57 59 61 61 56 51 49 52 51 50 49 50 48 51 55 56 57 56 51 47 50 44 47 42 44 39 39 38 35 37 39 39 40 39 39 40 38 35 36 35 33 34 32 30 28 29 32 30 31 33 33 42 49 48 54 56 56
55 55 55 55 55 55 56 56 56 57 57 58 59 59 59 60 60 61 61 61 62 62 62 62 60 59 55 49 53 57 59 58 58 61 61 56 52 51 52 51 51 50 49 48 50 53 56 56 57 52 51 51 43 42 44 44 40 40 39 37 37 38 37 38 40 39 39 38 36 37 33 33 33 33 34 34 32 29 30 29 33 34 35 44 47 51 54 54
55 55 55 55 55 55 55 56 56 56 57 58 58 59 59 59 60 60 61 60 62 62 62 62 60 58 54 51 55 58 60 62 61 59 59 58 50 53 52 52 53 53 53 53 52 55 56 59 57 56 54 50 45 49 40 40 40 38 39 38 38 37 35 38 38 38 38 39 38 36 33 33 35 34 32 32 31 27 27 27 31 35 35 39 44 48 51 52
54 54 55 55 55 55 55 55 56 56 56 57 58 59 59 59 60 60 60 60 60 61 61 60 59 54 51 51 55 58 61 61 59 59 60 57 52 51 50 50 50 52 51 53 53 57 58 58 55 54 52 49 47 42 40 39 38 38 37 36 38 36 37 38 39 38 36 32 35 35 33 33 34 35 33 31 30 27 26 27 28 36 37 37 41 47 50 51
54 54 54 54 55 55 55 55 55 56 57 57 58 58 58 58 59 60 61 60 60 61 61 57 55 55 49 47 53 58 56 54 56 60 61 56 52 50 49 48 51 51 51 52 56 57 56 56 55 54 53 48 44 41 40 39 38 38 37 37 36 37 37 37 37 40 39 29 30 34 33 32 30 35 35 31 29 28 27 27 27 35 37 36 39 46 50 51
54 54 54 54 55 55 55 55 55 56 57 57 58 58 58 58 59 60 60 60 59 59 59 54 56 54 46 52 55 52 51 53 58 58 59 59 55 54 50 51 50 49 52 53 56 53 53 52 53 52 52 50 44 42 39 38 38 37 38 37 38 36 36 36 36 33 40 28 25 27 32 34 34 33 23 21 32 31 29 29 29 30 36 36 38 45 49 50
54 54 54 54 54 55 55 55 55 56 56 56 56 57 57 58 59 57 58 58 57 56 56 53 55 49 47 52 48 49 52 53 55 56 56 59 56 56 53 49 49 49 52 52 52 49 52 50 52 47 48 48 47 41 38 36 38 38 36 36 37 36 36 36 34 35 31 32 26 22 24 27 29 30 30 22 21 29 29 29 27 26 30 36 38 45 49 50
54 54 54 54 54 54 55 55 56 56 56 57 57 58 57 57 56 57 54 53 52 47 45 45 47 41 37 47 52 52 51 53 55 56 55 55 59 55 55 57 53 48 48 48 48 49 50 48 48 46 43 45 44 41 39 41 40 39 38 36 37 37 36 36 35 30 30 28 30 29 24 24 24 25 26 28 27 23 24 25 25 25 24 35 38 43 48 49
53 54 54 54 54 54 55 55 55 55 55 55 54 53 52 49 48 48 52 50 49 46 48 47 48 47 47 50 50 53 53 54 54 55 55 54 53 53 53 54 49 49 48 45 47 47 48 45 43 43 44 45 43 42 41 40 40 40 39 39 38 38 38 39 34 25 30 29 30 31 31 30 31 30 28 28 29 29 26 24 23 24 24 30 38 41 45 48
53 53 54 54 54 54 55 55 55 55 55 53 53 50 43 44 41 40 47 48 49 48 47 48 46 44 45 47 48 50 49 51 54 54 55 55 52 50 50 52 48 46 48 46 47 48 47 43 43 44 44 44 43 42 41 40 40 39 40 39 38 39 37 39 35 28 29 31 31 29 29 30 30 31 32 34 33 31 30 27 25 25 24 24 35 40 42 45
53 53 54 54 54 54 55 55 55 55 55 51 52 48 46 46 46 52 48 43 47 48 47 48 48 44 48 50 50 51 52 49 50 53 55 55 52 47 50 49 46 44 48 48 48 45 44 42 43 44 44 43 42 41 41 40 40 41 41 40 38 38 39 37 32 28 30 34 33 36 33 33 34 35 36 37 37 36 35 34 30 26 26 24 26 38 41 43
53 53 53 54 54 54 55 54 55 54 53 50 48 49 45 47 49 51 46 44 44 48 46 46 46 45 45 49 51 51 48 47 47 51 53 54 51 48 50 48 46 46 47 47 44 42 40 42 43 44 43 42 41 41 41 40 40 40 41 40 38 39 38 35 33 32 35 34 34 34 34 35 35 35 35 36 37 37 37 36 35 31 26 25 24 27 38 41
53 53 53 54 54 54 54 54 54 53 51 50 49 48 47 48 50 49 43 38 38 45 46 46 46 45 44 45 50 48 48 48 49 49 55 53 50 52 50 48 46 46 45 46 45 43 41 42 43 43 42 41 40 40 40 40 39 40 41 41 40 40 40 37 32 31 33 32 32 31 29 29 29 29 31 31 33 35 36 36 35 34 31 28 30 30 33 38
53 53 53 54 53 54 53 54 51 50 51 50 48 49 48 49 50 49 43 38 39 40 47 45 45 45 47 50 49 45 46 46 47 51 54 52 51 51 49 51 48 45 46 46 45 43 41 43 43 42 42 41 41 40 40 41 39 39 40 41 41 41 40 37 32 28 31 34 31 29 28 29 31 30 30 30 30 31 33 34 34 34 32 29 26 27 29 35
53 53 53 53 53 53 54 48 48 50 50 47 48 49 49 49 50 48 42 31 30 38 45 37 44 41 49 46 45 46 46 42 47 50 53 54 51 49 49 48 50 44 45 45 44 43 41 43 43 42 41 41 41 40 41 41 39 38 38 41 41 41 40 32 30 36 32 31 29 30 29 27 29 28 29 29 30 30 31 32 33 33 32 30 28 27 27 29
53 53 53 53 53 53 48 44 50 50 44 46 49 50 50 50 51 47 39 29 26 38 36 44 41 41 45 46 45 43 37 41 49 51 53 54 50 55 46 46 48 48 47 47 44 41 42 42 42 42 41 41 40 40 41 40 39 38 41 42 42 41 41 40 37 36 35 35 35 28 30 26 29 32 33 33 32 31 30 31 32 33 33 32 29 27 27 28
53 53 53 54 53 52 48 49 49 46 46 47 50 50 51 50 49 46 36 19 19 40 36 40 40 48 43 45 44 41 40 48 42 48 53 54 54 51 49 46 45 45 46 46 37 46 42 41 42 41 41 40 40 40 41 41 39 39 42 42 41 41 40 40 39 36 34 32 32 29 31 28 27 29 30 32 31 30 30 30 31 32 33 33 33 31 28 27
53 53 53 53 52 53 51 49 47 46 48 51 50 51 50 47 45 38 28 20 36 34 48 38 48 42 45 45 43 42 41 45 42 50 52 54 54 51 46 47 45 45 46 45 41 43 42 42 41 41 41 39 40 41 42 41 39 41 43 43 42 43 40 40 36 35 33 34 33 30 31 29 31 30 30 29 29 29 29 29 30 31 32 33 33 33 31 27
53 53 52 53 52 51 49 50 48 48 51 51 51 51 49 48 40 29 22 14 36 26 39 41 38 38 42 40 40 41 40 42 44 48 51 49 51 52 50 53 46 45 45 45 42 43 43 43 43 42 40 40 41 42 42 41 42 43 42 40 37 36 34 33 31 32 33 33 33 33 32 31 29 30 31 31 30 28 29 29 29 30 32 33 34 34 35 30
53 53 52 52 49 49 49 46 49 51 51 51 51 49 46 42 32 24 18 24 32 33 42 41 37 42 38 37 37 40 40 41 42 44 45 49 47 49 49 47 49 44 44 44 42 43 42 43 44 44 42 43 43 42 43 44 43 41 37 35 36 33 32 31 28 30 31 31 30 33 32 32 29 27 31 32 32 30 29 29 29 29 29 31 35 36 36 33
53 53 52 51 51 50 46 45 49 51 51 51 48 45 41 25 30 22 19 36 23 30 36 36 40 37 36 37 36 38 38 40 41 41 41 44 44 43 45 41 44 37 36 39 37 39 41 43 43 44 46 42 42 41 41 42 44 41 37 36 34 30 31 30 30 30 32 30 21 25 32 30 31 31 32 33 33 33 31 29 29 29 29 30 32 34 35 34
52 51 53 51 50 49 48 51 52 51 51 50 47 44 34 26 16 26 28 27 24 36 34 38 38 37 36 35 34 37 39 36 40 40 40 42 44 44 45 45 45 42 33 40 38 39 39 43 43 43 43 45 43 39 37 39 41 41 36 35 33 29 29 28 30 31 31 30 29 28 30 28 30 29 33 33 33 33 33 32 30 29 29 30 31 35 33 33
51 52 49 48 48 50 51 52 52 51 49 48 44 37 33 23 21 35 25 27 28 37 38 36 39 37 36 32 33 36 35 37 38 38 39 38 42 41 43 44 45 42 40 41 37 38 34 35 40 43 40 45 42 40 40 39 40 39 38 36 33 32 30 27 28 27 29 28 26 29 29 28 27 29 28 31 32 32 33 34 33 33 32 31 32 35 35 34
51 49 48 48 49 51 51 52 51 50 48 46 39 33 24 22 30 27 24 26 31 37 36 39 37 36 35 34 36 36 34 33 37 38 37 37 36 39 41 42 45 44 42 38 37 35 36 36 42 43 42 44 42 41 41 40 38 38 38 38 34 31 32 28 26 28 25 20 20 21 29 27 29 30 29 29 28 27 26 26 28 28 30 31 30 30 31 32
48 48 50 48 48 50 51 51 50 49 47 42 34 28 25 27 24 27 28 33 34 36 37 38 37 34 33 33 35 36 37 32 36 37 37 38 39 38 41 43 44 44 42 37 39 34 34 34 43 42 44 43 43 41 40 40 34 37 39 35 35 35 32 26 27 26 25 22 24 22 25 27 28 28 29 29 28 28 28 27 23 20 22 26 27 28 28 30
46 48 46 48 49 51 51 51 50 47 45 39 32 26 30 28 33 34 36 33 35 38 37 31 32 33 32 31 33 36 36 37 37 36 34 40 37 39 39 42 45 45 45 43 39 39 34 35 43 41 41 43 44 42 40 40 39 37 37 37 38 40 37 31 28 25 24 20 21 25 26 24 24 25 30 29 28 28 28 28 26 23 23 22 25 28 29 30
45 46 46 46 48 51 51 50 49 46 42 36 30 31 32 31 38 36 37 37 36 36 35 32 33 35 32 32 32 35 37 33 35 36 32 39 34 42 40 41 44 45 45 45 41 38 39 33 36 38 41 41 44 41 40 42 42 38 37 38 35 32 31 32 29 26 23 24 23 22 25 24 26 26 26 23 27 27 27 28 26 24 23 22 22 24 28 31
45 44 40 45 49 51 50 50 47 43 37 32 30 31 32 34 38 37 40 38 38 34 33 34 32 33 35 32 33 36 37 32 37 34 32 35 34 41 41 42 42 46 47 45 43 40 38 33 34 38 40 40 43 43 36 39 41 41 40 36 38 33 32 30 31 27 26 25 19 20 22 24 27 26 26 25 25 27 27 27 25 24 23 22 22 25 28 30
41 38 37 46 49 49 49 48 43 39 34 29 30 27 34 33 37 40 41 39 35 35 33 32 34 33 35 33 35 34 37 34 35 34 34 38 36 44 41 43 43 44 46 46 44 42 37 35 32 35 38 40 37 39 38 37 35 37 38 36 36 34 35 33 31 28 26 23 21 19 18 24 27 28 27 26 27 27 27 27 28 25 23 23 23 26 32 34
39 38 38 47 48 49 48 43 37 32 31 33 34 30 31 33 37 38 38 39 35 38 35 34 36 33 33 34 34 37 36 35 35 34 34 37 38 35 42 42 44 43 46 44 43 43 35 33 32 34 34 36 38 39 39 38 35 36 36 35 35 33 30 30 29 30 28 25 22 19 23 22 28 28 27 27 27 27 27 27 27 26 24 24 29 31 34 34
34 31 36 46 48 46 43 35 35 34 32 30 29 32 33 39 36 37 36 37 35 34 37 38 37 36 34 34 35 36 36 35 35 34 35 35 39 39 41 43 43 45 44 41 42 44 42 35 35 34 35 37 39 33 33 37 36 36 36 35 36 35 32 31 29 30 30 30 28 23 22 27 29 26 28 28 27 26 26 27 27 29 26 26 31 33 34 34
35 34 42 46 48 44 40 32 34 32 29 32 36 35 37 34 35 36 35 35 34 34 32 35 35 34 36 36 35 35 36 32 35 34 35 37 38 40 44 43 44 45 44 43 44 44 39 34 33 31 34 36 38 37 39 39 37 38 39 37 36 34 32 32 31 31 30 29 29 27 25 26 24 27 26 27 27 26 26 28 27 23 27 33 33 33 33 33
36 36 40 45 47 44 32 24 27 29 29 32 34 32 34 34 34 33 33 34 34 32 31 33 35 39 36 39 37 35 37 31 34 35 34 37 37 42 43 44 43 45 45 43 41 44 35 34 35 30 30 31 33 36 34 36 37 36 36 36 37 36 35 33 31 29 30 31 30 29 26 28 31 28 27 21 21 20 19 23 23 25 28 29 29 32 32 32
35 37 39 42 45 41 30 32 27 27 28 30 29 28 29 31 33 33 33 32 34 33 32 31 35 38 37 39 35 37 37 36 33 36 36 36 38 40 42 44 44 45 45 46 43 45 37 36 34 29 25 24 24 26 28 31 34 36 37 36 36 36 35 31 31 28 28 30 31 29 28 29 23 30 27 26 18 16 18 21 25 26 26 27 27 30 32 33
29 27 35 37 40 38 36 36 33 28 25 26 26 26 29 28 32 33 34 32 34 33 33 34 35 36 33 34 33 34 35 37 34 33 35 33 35 36 41 43 45 45 44 44 44 44 35 37 37 36 31 28 30 33 37 36 36 34 35 36 35 36 35 34 32 30 28 29 29 30 30 29 27 26 27 29 25 19 17 20 20 23 27 29 30 32 33 33
30 31 32 30 36 36 35 35 32 30 25 28 24 26 25 29 31 32 34 29 33 31 32 33 33 30 31 33 33 33 35 35 36 35 34 34 35 38 41 41 44 44 43 43 44 40 33 35 37 36 34 35 34 36 37 36 34 35 34 34 35 35 35 34 32 30 31 28 27 30 30 30 30 29 29 30 30 27 23 21 20 23 26 28 30 32 35 33
26 29 33 34 30 28 29 31 33 31 32 26 25 28 26 28 28 28 31 32 34 32 30 33 30 29 33 32 34 31 33 32 34 32 34 35 35 36 38 41 40 42 43 43 45 41 35 33 36 36 34 35 36 35 36 35 34 35 35 34 34 35 35 33 33 34 33 30 28 30 31 29 29 30 30 29 29 28 24 22 22 21 23 28 30 30 28 29
30 30 32 33 28 31 31 33 32 31 29 27 29 27 26 27 27 29 29 30 32 31 31 28 30 31 32 34 33 31 33 30 30 34 33 33 34 34 34 36 39 42 44 43 43 40 38 34 35 36 34 35 35 35 36 35 35 35 35 34 34 34 34 34 34 34 34 32 32 31 31 30 30 30 30 30 30 30 27 24 23 23 27 28 28 27 26 26
30 29 28 31 31 30 31 31 31 30 26 31 25 26 26 25 25 28 30 30 28 29 31 26 30 31 33 32 31 30 33 35 34 32 35 34 33 35 34 36 36 39 43 42 41 40 39 34 36 36 34 33 34 36 35 35 34 33 34 35 34 34 34 34 34 34 34 33 33 32 31 31 31 31 31 31 30 29 28 26 23 22 26 28 27 26 24 24
34 34 34 28 26 28 30 29 28 27 25 26 24 26 27 26 24 28 29 30 30 30 30 26 30 31 31 31 30 29 34 36 37 37 37 36 34 37 36 35 40 36 38 39 39 37 38 33 37 35 32 32 34 34 35 34 34 33 33 34 34 33 32 33 33 34 33 32 32 32 31 30 31 31 31 32 28 27 27 26 22 21 25 27 26 24 24 24
33 33 33 30 24 31 28 28 27 25 21 25 27 26 25 26 27 28 25 29 30 32 32 29 32 32 29 29 29 29 32 34 36 39 40 40 42 41 41 41 41 40 36 38 40 36 36 34 33 33 32 32 34 34 34 33 33 32 32 33 34 34 33 34 34 34 33 33 32 31 30 32 32 32 32 32 31 28 26 25 23 22 26 26 24 23 23 24